#timestamp,LO_Frequency,Hit,StdDev 
1698872415.5,286046988.4,P
1698872435.4,286046985.3,P
1698872455.2,286046985.8,Y
1698872475.0,286047001.2,P
1698872475.9,286047001.2,N
1698872495.8,286047002.7,N
1698872515.6,286047006.4,N
1698872535.4,286047008.8,N
1698872555.3,286047009.2,N
1698872575.1,286047005.5,N
1698872595.9,286047004.2,N
1698872615.7,286047000.1,N
1698872635.5,286046998.7,N
1698872655.4,286047000.7,N
1698872675.2,286047002.7,N
1698872695.0,286046998.6,N
1698872695.9,286046998.6,N
1698872715.8,286046996.1,N
1698872735.6,286046993.4,N
1698872755.5,286046996.1,N
1698872775.3,286046996.9,N
1698872795.1,286047003.0,N
1698872815.9,286047015.2,N
1698872835.7,286047019.2,Y
1698872855.6,286047022.1,P
1698872875.4,286047033.1,P
1698872895.2,286047037.8,N
1698872915.1,286047033.9,N
1698872916.0,286047033.9,N
1698872935.8,286047025.8,N
1698872955.6,286047020.2,N
1698872975.5,286047016.5,N
1698872995.3,286047014.4,N
1698873015.2,286047013.5,N
1698873035.9,286047008.2,N
1698873055.7,286047005.1,N
1698873075.6,286047002.9,N
1698873095.4,286047001.0,N
1698873115.2,286046996.7,N
1698873135.1,286046995.9,N
1698873136.0,286046995.9,N
1698873155.8,286046992.4,N
1698873175.7,286046987.2,N
1698873195.5,286046986.1,N
1698873215.3,286046982.3,N
1698873235.2,286046981.7,N
1698873255.0,286046979.5,N
1698873255.9,286046979.5,N
1698873275.7,286046980.3,N
1698873295.6,286046978.0,N
1698873315.4,286046980.3,N
1698873335.3,286046978.7,N
1698873355.1,286046978.7,N
1698873356.0,286046978.7,N
1698873375.8,286046977.9,N
1698873395.7,286046983.6,N
1698873415.5,286046987.6,N
1698873435.3,286046994.5,N
1698873455.2,286046995.8,N
1698873475.0,286046997.0,N
1698873475.9,286046997.0,N
1698873495.8,286046998.0,N
1698873515.6,286046994.6,N
1698873535.4,286046989.2,N
1698873555.3,286046986.4,N
1698873575.1,286046986.8,N
1698873595.8,286046988.0,N
1698873615.7,286046987.4,N
1698873635.5,286046990.5,N
1698873655.4,286046990.9,N
1698873675.2,286046989.1,N
1698873695.0,286046990.1,N
1698873695.9,286046990.1,N
1698873715.8,286046994.1,N
1698873735.6,286046997.0,N
1698873755.4,286047001.8,N
1698873775.3,286047005.5,N
1698873795.1,286047007.0,N
1698873815.9,286047010.6,N
1698873835.7,286047011.9,N
1698873855.5,286047011.6,N
1698873875.4,286047011.1,N
1698873895.2,286047014.2,N
1698873915.0,286047013.1,N
1698873916.0,286047013.1,N
1698873935.8,286047012.4,N
1698873955.6,286047007.9,N
1698873975.5,286047009.8,N
1698873995.3,286047010.1,N
1698874015.1,286047013.8,N
1698874035.9,286047012.9,N
1698874055.7,286047016.1,N
1698874075.6,286047021.8,N
1698874095.4,286047022.8,N
1698874115.2,286047024.3,N
1698874135.1,286047026.5,N
1698874136.0,286047026.5,N
1698874155.8,286047025.6,N
1698874175.6,286047026.2,N
1698874195.5,286047024.1,N
1698874215.3,286047028.3,N
1698874235.2,286047027.2,N
1698874255.9,286047027.8,N
1698874275.7,286047028.3,Y
1698874295.6,286047013.0,P
1698874315.4,286047012.5,P
1698874335.2,286047016.5,P
1698874355.1,286047018.5,Y
1698874356.0,286047018.5,P
1698874375.8,286047004.1,N
1698874395.7,286047003.0,N
1698874415.5,286047003.9,N
1698874435.3,286047001.4,N
1698874455.2,286046998.4,N
1698874475.0,286047002.7,N
1698874475.9,286047002.7,N
1698874495.8,286046999.9,N
1698874515.6,286046998.7,N
1698874535.4,286047002.3,N
1698874555.3,286047004.8,N
1698874575.1,286047008.7,N
1698874595.8,286047016.5,N
1698874615.7,286047012.2,N
1698874635.5,286047001.3,N
1698874655.4,286046999.0,N
1698874675.2,286046999.6,N
1698874695.0,286046997.6,N
1698874695.9,286046997.6,N
1698874715.8,286046998.0,N
1698874735.6,286046996.0,N
1698874755.5,286046993.0,N
1698874775.3,286046991.6,N
1698874795.1,286046985.6,N
1698874815.9,286046986.7,N
1698874835.7,286046982.4,N
1698874855.5,286046982.7,N
1698874875.4,286046984.7,N
1698874895.2,286046982.9,N
1698874915.1,286046980.9,N
1698874916.0,286046980.9,N
1698874935.8,286046977.3,N
1698874955.6,286046980.2,N
1698874975.5,286046979.4,N
1698874995.3,286046977.8,N
1698875015.2,286046977.7,N
1698875035.9,286046977.9,N
1698875055.7,286046976.1,N
1698875075.6,286046975.8,N
1698875095.4,286046972.5,N
1698875115.2,286046969.6,N
1698875135.1,286046969.5,N
1698875136.0,286046969.5,N
1698875155.8,286046970.3,N
1698875175.7,286046968.5,Y
1698875195.5,286046982.3,P
1698875215.3,286046981.7,P
1698875235.2,286046978.7,P
1698875255.0,286046973.0,Y
1698875255.9,286046973.0,P
1698875275.8,286046992.5,N
1698875295.6,286046994.6,N
1698875315.4,286046996.3,N
1698875335.3,286046997.9,N
1698875355.1,286046999.6,N
1698875375.9,286046999.1,N
1698875395.7,286046998.4,N
1698875415.5,286046997.8,N
1698875435.4,286046995.3,N
1698875455.2,286046996.1,N
1698875475.0,286046995.8,N
1698875476.0,286046995.8,N
1698875495.8,286046996.6,N
1698875515.6,286046993.3,N
1698875535.5,286046996.2,N
1698875555.3,286046993.8,N
1698875575.1,286046995.1,N
1698875595.9,286046998.4,N
1698875615.7,286047003.0,N
1698875635.6,286047005.7,N
1698875655.4,286047008.3,N
1698875675.2,286047008.9,N
1698875695.1,286047011.3,N
1698875696.0,286047011.3,N
1698875715.8,286047012.3,N
1698875735.6,286047011.9,N
1698875755.5,286047013.8,N
1698875775.3,286047010.9,N
1698875795.2,286047011.6,N
1698875815.9,286047010.3,N
1698875835.7,286047006.2,N
1698875855.6,286047012.2,N
1698875875.4,286047004.2,N
1698875895.2,286047004.0,N
1698875915.1,286047000.5,N
1698875916.0,286047000.5,N
1698875935.8,286047000.1,N
1698875955.7,286047001.0,N
1698875975.5,286047000.5,N
1698875995.3,286047003.7,N
